Showing default

NINGXIA-1 7, 49019

Orbit data source: Space-Track

NINGXIA-1 7, 49019 is a Chinese payload satellite in LEO that was launched on Fri, 09 Jul 2021 UTC via a CHANG ZHENG 6 launch vehicle from the Taiyaun Space Center, China (TSC). Payload-class satellites include a variety of spacecraft equipped with specific instruments for various scientific and technological missions. These include communications satellites like Starlink; space stations such as the ISS; scientific satellites like the Hubble; Earth observation satellites from companies like Planet Labs, Umbra, and HawkEye 360; GPS; miniature CubeSats for education and research; and military/defense satellites.

Loading next visibility...
Identifier
49019, 2021-064B
Orbit
LEO
Country
Flag of CNCN / PRC
Related business
Manufacturer
DFH
Mission
Operational Commercial Sigint
Bus & Motor
NX-1, Unknown motor
Mass
~100 kg wet, ~100 kg dry
Launch date (UTC)
2021-07-09 (5 years ago)
Launch vehicle
CHANG ZHENG 6
Launch site
Taiyaun Space Center, China (TSC)
Object type
Payload
Rocket body
Debris
Shape & HBR
Box + 2 Pan, 0.5 m
Radar Cross Section
0.166 m², Medium (>0.1 m² and < 1m²)

Expand to show TLE details & history
Last TLE update: 15 hours ago

TLE from 15 hours ago
0 NINGXIA-1 7
1 49019U 21064B   26171.52298796  .00000055  00000-0  10774-3 0  9993
2 49019  45.0009 212.2652 0008171 256.3455 103.6472 14.08551112254710
Epoch: 2026-06-20T12:33Z
TLE epoch observation values (Epoch: 2026-06-20T12:33:06.159Z)
Latitude
-0.00002°
Longitude
115.25313°
Altitude
865.734 km
Speed
7.42 km/s
True Right ascension
14h 09m 03s
True Declination
0° 00' 00"
Sunlit
Object was in full shadow at epoch
Visualization orbit readout
Latitude
Unknown
Longitude
Unknown
Altitude
Unknown
Speed
Unknown
Apparent Right ascension
Unknown
Apparent Declination
Unknown
Sunlit
N/A
Visualization observer readout
Local Sidereal Time
14:05:07
Azimuth
Unknown
Elevation
Unknown
Doppler factor
Unknown
Orbital elements
Apogee altitude
871.778 km
Perigee altitude
859.94 km
Semi-major axis
7,243.996 km
Eccentricity
0.00082
Inclination
45.0009°
RAAN
212.2652°
Arg. of periapsis
256.3455°
True anomaly
103.73817°
Mean anomaly
103.6472°
Eccentric anomaly
103.69269°
Mean motion
3.52027 °/min
Orbital period
102.26 mins
BSTAR
0.00010774
Loading maneuver chart data...
Computing Atmospheric mass density...
Loading historical data...
Loading historical data...
Loading historical data...
Loading historical data...
Loading historical data...
Loading historical data...
Loading historical data...
Other satellites on launch #64 in the year 2021 (2021-07-09 UTC)

Documentation

Showing up to 5 results
|